| time (UTC) | temp F | wind direction | speed MPH | gust MPH | rain 1hr in | rain 24hr in | rain mn in | humidity % | barometer mb |
| 20260903143100 | 50 | 240 | 2.0 | 5.0 | 0.00 | 0.00 | 0.00 | 32 | 1019.3 |
| 20260903141557 | 49 | 231 | 1.0 | 4.0 | 0.00 | 0.00 | 0.00 | 35 | 1019.1 |
| 20260903140056 | 47 | 227 | 2.0 | 4.0 | 0.00 | 0.00 | 0.00 | 37 | 1019.0 |
| 20260903134551 | 47 | 192 | 1.0 | 4.0 | 0.00 | 0.00 | 0.00 | 37 | 1018.8 |
| 20260903133047 | 47 | 192 | 1.0 | 3.0 | 0.00 | 0.00 | 0.00 | 39 | 1018.8 |
| 20260903131547 | 47 | 192 | 1.0 | 4.0 | 0.00 | 0.00 | 0.00 | 40 | 1018.7 |
| 20260903130052 | 47 | 188 | 1.0 | 3.0 | 0.00 | 0.00 | 0.00 | 46 | 1018.7 |
| 20260903124551 | 47 | 188 | 1.0 | 3.0 | 0.00 | 0.00 | 0.00 | 46 | 1018.9 |
| 20260903123045 | 47 | 185 | 1.0 | 2.0 | 0.00 | 0.00 | 0.00 | 47 | 1018.8 |
| 20260903121541 | 47 | 185 | 0.0 | 4.0 | 0.00 | 0.00 | 0.00 | 47 | 1019.0 |
| 20260903120056 | 48 | 185 | 1.0 | 9.0 | 0.00 | 0.00 | 0.00 | 46 | 1019.1 |
| 20260903114548 | 47 | 205 | 2.0 | 11.0 | 0.00 | 0.00 | 0.00 | 44 | 1019.2 |
| 20260903113045 | 47 | 226 | 1.0 | 5.0 | 0.00 | 0.00 | 0.00 | 52 | 1019.2 |
| 20260903111545 | 47 | 298 | 2.0 | 4.0 | 0.00 | 0.00 | 0.00 | 54 | 1019.6 |
| 20260903110056 | 47 | 306 | 1.0 | 3.0 | 0.00 | 0.00 | 0.00 | 57 | 1019.6 |
| 20260903104553 | 47 | 15 | 1.0 | 3.0 | 0.00 | 0.00 | 0.00 | 59 | 1019.6 |
| 20260903103050 | 47 | 15 | 1.0 | 6.0 | 0.00 | 0.00 | 0.00 | 61 | 1019.8 |
| 20260903101551 | 47 | 313 | 0.0 | 3.0 | 0.00 | 0.00 | 0.00 | 62 | 1019.8 |
| 20260903100056 | 47 | 313 | 2.0 | 7.0 | 0.00 | 0.00 | 0.00 | 63 | 1019.6 |
| 20260903094546 | 47 | 250 | 1.0 | 5.0 | 0.00 | 0.00 | 0.00 | 62 | 1019.6 |
| 20260903093102 | 47 | 281 | 1.0 | 4.0 | 0.00 | 0.00 | 0.00 | 63 | 1019.8 |
| 20260903091551 | 47 | 0 | 1.0 | 11.0 | 0.00 | 0.00 | 0.00 | 65 | 1020.1 |
| 20260903090054 | 47 | 219 | 1.0 | 5.0 | 0.00 | 0.00 | 0.00 | 66 | 1020.1 |
| 20260903084546 | 47 | 275 | 1.0 | 4.0 | 0.00 | 0.00 | 0.00 | 67 | 1020.1 |
| 20260903083053 | 47 | 253 | 1.0 | 4.0 | 0.00 | 0.00 | 0.00 | 68 | 1020.3 |
| 20260903081557 | 47 | 0 | 1.0 | 6.0 | 0.00 | 0.00 | 0.00 | 69 | 1020.3 |
| 20260903080049 | 46 | 254 | 1.0 | 5.0 | 0.00 | 0.00 | 0.00 | 70 | 1020.3 |
| 20260903074546 | 46 | 340 | 1.0 | 3.0 | 0.00 | 0.00 | 0.00 | 70 | 1020.5 |
| 20260903073046 | 46 | 327 | 1.0 | 4.0 | 0.00 | 0.00 | 0.00 | 69 | 1020.4 |
| 20260903071553 | 46 | 327 | 1.0 | 12.0 | 0.00 | 0.00 | 0.00 | 70 | 1020.3 |
| 20260903070057 | 46 | 211 | 1.0 | 9.0 | 0.00 | 0.00 | 0.00 | 69 | 1020.2 |
| 20260903064546 | 46 | 63 | 1.0 | 5.0 | 0.00 | 0.00 | 0.00 | 67 | 1020.3 |
| 20260903063110 | 46 | 71 | 1.0 | 5.0 | 0.00 | 0.00 | 0.00 | 66 | 1020.3 |
| 20260903061543 | 46 | 85 | 2.0 | 5.0 | 0.00 | 0.00 | 0.00 | 65 | 1020.3 |
| 20260903060051 | 46 | 88 | 1.0 | 4.0 | 0.00 | 0.00 | 0.00 | 63 | 1020.4 |
| 20260903054549 | 46 | 88 | 1.0 | 6.0 | 0.00 | 0.00 | 0.00 | 63 | 1020.5 |
| 20260903053045 | 46 | 62 | 2.0 | 5.0 | 0.00 | 0.00 | 0.00 | 64 | 1020.7 |
| 20260903051548 | 46 | 27 | 1.0 | 4.0 | 0.00 | 0.00 | 0.00 | 66 | 1020.8 |
| 20260903050107 | 46 | 15 | 1.0 | 6.0 | 0.00 | 0.00 | 0.00 | 68 | 1020.8 |
| 20260903044551 | 46 | 140 | 1.0 | 3.0 | 0.00 | 0.00 | 0.00 | 68 | 1021.0 |
| 20260903043048 | 46 | 140 | 1.0 | 4.0 | 0.00 | 0.00 | 0.00 | 68 | 1020.8 |
| 20260903041550 | 47 | 185 | 0.0 | 4.0 | 0.00 | 0.00 | 0.00 | 67 | 1020.8 |
| 20260903040055 | 47 | 301 | 1.0 | 5.0 | 0.00 | 0.00 | 0.00 | 67 | 1020.7 |
| 20260903034552 | 47 | 355 | 1.0 | 3.0 | 0.00 | 0.00 | 0.00 | 67 | 1020.5 |
| 20260903033046 | 47 | 335 | 1.0 | 4.0 | 0.00 | 0.00 | 0.00 | 65 | 1020.4 |
| 20260903031546 | 48 | 213 | 2.0 | 6.0 | 0.00 | 0.00 | 0.00 | 64 | 1020.2 |
| 20260903030058 | 48 | 163 | 1.0 | 6.0 | 0.00 | 0.00 | 0.00 | 63 | 1020.2 |
| 20260903024550 | 49 | 242 | 3.0 | 9.0 | 0.00 | 0.00 | 0.00 | 62 | 1020.3 |
| 20260903023046 | 49 | 265 | 1.0 | 6.0 | 0.00 | 0.00 | 0.00 | 61 | 1020.4 |
| 20260903021547 | 50 | 309 | 3.0 | 11.0 | 0.00 | 0.00 | 0.00 | 60 | 1020.3 |
| 20260903020049 | 50 | 266 | 1.0 | 14.0 | 0.00 | 0.00 | 0.00 | 59 | 1020.2 |
| 20260903014555 | 51 | 206 | 5.0 | 18.0 | 0.00 | 0.00 | 0.00 | 57 | 1020.2 |
| 20260903013050 | 51 | 202 | 4.0 | 13.0 | 0.00 | 0.00 | 0.00 | 58 | 1020.2 |
| 20260903011559 | 51 | 186 | 3.0 | 14.0 | 0.00 | 0.00 | 0.00 | 56 | 1020.2 |
| 20260903010044 | 52 | 185 | 5.0 | 18.0 | 0.00 | 0.00 | 0.00 | 55 | 1020.3 |
| 20260903004557 | 52 | 189 | 4.0 | 18.0 | 0.00 | 0.00 | 0.00 | 53 | 1020.2 |
| 20260903003048 | 53 | 180 | 4.0 | 19.0 | 0.00 | 0.00 | 0.00 | 51 | 1020.3 |
| 20260903001544 | 53 | 167 | 4.0 | 15.0 | 0.00 | 0.00 | 0.00 | 50 | 1020.3 |
| 20260903000057 | 53 | 161 | 5.0 | 18.0 | 0.00 | 0.00 | 0.00 | 49 | 1020.3 |
| 20260902234554 | 54 | 250 | 6.0 | 23.0 | 0.00 | 0.00 | 0.00 | 47 | 1020.4 |
| 20260902233057 | 54 | 212 | 3.0 | 20.0 | 0.00 | 0.00 | 0.00 | 46 | 1020.1 |
| 20260902231554 | 54 | 206 | 5.0 | 22.0 | 0.00 | 0.00 | 0.00 | 46 | 1020.2 |
| 20260902230045 | 54 | 180 | 5.0 | 19.0 | 0.00 | 0.00 | 0.00 | 48 | 1020.2 |
| 20260902224600 | 54 | 163 | 3.0 | 17.0 | 0.00 | 0.00 | 0.00 | 47 | 1020.2 |
| 20260902223046 | 54 | 181 | 2.0 | 11.0 | 0.00 | 0.00 | 0.00 | 49 | 1020.1 |
| 20260902221550 | 53 | 189 | 4.0 | 18.0 | 0.00 | 0.00 | 0.00 | 49 | 1020.3 |
| 20260902220053 | 53 | 196 | 4.0 | 22.0 | 0.00 | 0.00 | 0.00 | 49 | 1020.5 |
| 20260902214546 | 53 | 189 | 4.0 | 19.0 | 0.00 | 0.00 | 0.00 | 48 | 1020.5 |
| 20260902213052 | 53 | 250 | 4.0 | 14.0 | 0.00 | 0.00 | 0.00 | 48 | 1020.6 |
| 20260902211555 | 53 | 132 | 4.0 | 22.0 | 0.00 | 0.00 | 0.00 | 49 | 1020.8 |
| 20260902210046 | 54 | 144 | 5.0 | 23.0 | 0.00 | 0.00 | 0.00 | 48 | 1020.7 |
| 20260902204545 | 56 | 189 | 5.0 | 22.0 | 0.00 | 0.00 | 0.00 | 44 | 1020.7 |
| 20260902203053 | 55 | 173 | 4.0 | 18.0 | 0.00 | 0.00 | 0.00 | 49 | 1020.7 |
| 20260902201556 | 56 | 222 | 5.0 | 16.0 | 0.00 | 0.00 | 0.00 | 47 | 1020.9 |
| 20260902200051 | 55 | 192 | 6.0 | 20.0 | 0.00 | 0.00 | 0.00 | 48 | 1021.0 |
| 20260902194557 | 55 | 197 | 6.0 | 19.0 | 0.00 | 0.00 | 0.00 | 49 | 1021.0 |
| 20260902193057 | 54 | 183 | 7.0 | 18.0 | 0.00 | 0.00 | 0.00 | 50 | 1021.1 |
| 20260902191556 | 55 | 178 | 5.0 | 20.0 | 0.00 | 0.00 | 0.00 | 53 | 1021.1 |
| 20260902190050 | 54 | 211 | 8.0 | 22.0 | 0.00 | 0.00 | 0.00 | 51 | 1021.0 |
| 20260902184558 | 54 | 186 | 4.0 | 17.0 | 0.00 | 0.00 | 0.00 | 53 | 1021.0 |
| 20260902183048 | 54 | 184 | 7.0 | 19.0 | 0.00 | 0.00 | 0.00 | 51 | 1021.0 |
| 20260902181546 | 54 | 205 | 3.0 | 12.0 | 0.00 | 0.00 | 0.00 | 53 | 1021.0 |
| 20260902180122 | 53 | 189 | 5.0 | 15.0 | 0.00 | 0.00 | 0.00 | 55 | 1020.8 |
| 20260902174544 | 51 | 193 | 6.0 | 15.0 | 0.00 | 0.00 | 0.00 | 57 | 1020.9 |
| 20260902173047 | 51 | 242 | 5.0 | 12.0 | 0.00 | 0.00 | 0.00 | 58 | 1020.7 |
| 20260902171602 | 49 | 178 | 3.0 | 17.0 | 0.00 | 0.00 | 0.00 | 60 | 1020.6 |
| 20260902170044 | 50 | 182 | 3.0 | 13.0 | 0.00 | 0.00 | 0.00 | 59 | 1020.6 |
| 20260902164553 | 50 | 175 | 1.0 | 11.0 | 0.00 | 0.00 | 0.00 | 61 | 1020.5 |
| 20260902163056 | 48 | 0 | 4.0 | 10.0 | 0.00 | 0.00 | 0.00 | 64 | 1020.3 |
| 20260902161553 | 47 | 161 | 1.0 | 12.0 | 0.00 | 0.00 | 0.00 | 66 | 1020.3 |
| 20260902160043 | 47 | 161 | 2.0 | 10.0 | 0.00 | 0.00 | 0.00 | 66 | 1020.4 |
| 20260902154550 | 46 | 157 | 1.0 | 8.0 | 0.00 | 0.00 | 0.00 | 66 | 1020.5 |
| 20260902153045 | 45 | 188 | 1.0 | 11.0 | 0.00 | 0.00 | 0.00 | 68 | 1020.5 |
| 20260902151551 | 45 | 171 | 1.0 | 13.0 | 0.00 | 0.00 | 0.00 | 70 | 1020.6 |
| 20260902150046 | 45 | 105 | 2.0 | 9.0 | 0.00 | 0.00 | 0.00 | 70 | 1020.5 |
| 20260902144544 | 44 | 198 | 1.0 | 6.0 | 0.00 | 0.00 | 0.00 | 71 | 1020.5 |